Regional Weather Roundup
Issued by NWS

Home | Current Version | Previous Version | Text Only | Print | Product List | Glossary Off
Versions: 1 2 3 4 5 6 7 8 9 10 11 12 13 14 15 16 17 18 19 20 21 22 23 24 25 26 27 28 29 30 31 32 33 34 35 36 37 38 39 40 41 42 43 44 45 46 47 48 49 50

000
ASUS45 KPSR 220100
RWRAZ

PRELIMINARY ARIZONA REGIONAL HOURLY WEATHER ROUNDUP
NATIONAL WEATHER SERVICE PHOENIX AZ
600 PM MST SUN SEP 21 2014

NOTE: FAIR INDICATES FEW OR NO CLOUDS BELOW 12,000 FEET WITH NO
SIGNIFICANT WEATHER AND/OR OBSTRUCTIONS TO VISIBILITY.

AZZ001>003-036-220200-
NORTHWEST ARIZONA

CITY           SKY/WX    TMP DP  RH WIND       PRES   REMARKS
KINGMAN        CLEAR     84  33  16 SW14      30.01S
$$

AZZ004>008-015-016-018-220200-
NORTH CENTRAL ARIZONA

CITY           SKY/WX    TMP DP  RH WIND       PRES   REMARKS
GRAND CANYON   CLEAR     71  42  35 SW13      30.24R
PRESCOTT       CLEAR     77  44  30 S9        30.13S
FLAGSTAFF      CLEAR     67  47  48 SW8       30.27F
PAYSON         CLEAR     77  55  47 W8        30.16R
PAGE           CLEAR     80  54  40 N3        30.07S
$$

AZZ009>014-017-220200-
NORTHEAST ARIZONA

CITY           SKY/WX    TMP DP  RH WIND       PRES   REMARKS
WINSLOW        NOT AVBL
SAINT JOHNS    PTCLDY    73  55  53 E7        30.18F
WINDOW ROCK    LGT RAIN  62  55  77 VRB6      30.29F
$$

AZZ023-220200-
GREATER PHOENIX AREA

CITY           SKY/WX    TMP DP  RH WIND       PRES   REMARKS
PHOENIX        PTCLDY    97  50  20 W6        29.83S
GLENDALE       PTCLDY    97  52  21 VRB5      29.85F
DEER VALLEY    CLEAR     94  52  24 NW6       29.86S
SCOTTSDALE     CLEAR     94  53  25 VRB5      29.88S
CHANDLER       PTCLDY    95  55  26 VRB3      29.85S
$$

AZZ027-028-220200-
SOUTHWEST MARICOPA COUNTY AND PINAL COUNTY

CITY           SKY/WX    TMP DP  RH WIND       PRES   REMARKS
CASA GRANDE    CLEAR     95  54  24 CALM      29.87F
$$

AZZ503-504-507>509-220200-
SOUTHEAST ARIZONA

CITY           SKY/WX    TMP DP  RH WIND       PRES   REMARKS
TUCSON         CLOUDY    92  59  33 NW6       29.96R
DAVIS-MONTHAN  MOCLDY    90  59  35 NW9       29.94S
RYAN FIELD       N/A     91  54  27 N13       29.95R
NOGALES        CLOUDY    73  67  81 S6        30.06S
SIERRA VISTA   CLOUDY    70  68  93 NW3       30.13R
SAFFORD        CLOUDY    80  65  59 E10       30.00R
$$

AZZ020-021-025-026-031-220200-
SOUTHWEST ARIZONA

CITY           SKY/WX    TMP DP  RH WIND       PRES   REMARKS
YUMA           NOT AVBL
$$

CAZ031-033-041-043-047-048-061-220200-
SOUTHERN CALIFORNIA

CITY           SKY/WX    TMP DP  RH WIND       PRES   REMARKS
DOWNTOWN L.A.  CLEAR     73  60  63 VRB7      29.92S
L.A. AIRPORT   PTCLDY    71  61  70 W15       29.93S
SAN DIEGO      PTCLDY    74  61  63 NW10      29.93S
BURBANK        CLEAR     75  57  53 S9        29.92R
ONTARIO        CLEAR     82  54  37 W12       29.92R
RIVERSIDE      CLEAR     81  57  43 W12       29.91S
PALM SPRINGS   CLEAR     97  44  16 NW15      29.81S
EL CENTRO NAS  CLEAR     99  38  12 E6        29.75F
IMPERIAL       CLEAR     99  41  13 E5        29.75F
BLYTHE         CLEAR     99  37  11 S5        29.77F
$$

NVZ020-UTZ003-220200-
SOUTHERN NEVADA-UTAH

CITY           SKY/WX    TMP DP  RH WIND       PRES   REMARKS
LAS VEGAS      NOT AVBL
SALT LAKE CITY MOCLDY    68  56  65 S9        30.12S
$$

NMZ009-TXZ055-220200-
NEW MEXICO-WEST TEXAS

CITY           SKY/WX    TMP DP  RH WIND       PRES   REMARKS
ALBUQUERQUE    CLOUDY    74  54  49 SE17      30.25R
EL PASO        MOCLDY    82  63  52 E13       30.08R
$$


........................KEY........................
SKY/WX - SKY CONDITION/WEATHER
TMP    - TEMPERATURE IN FAHRENHEIT
DP     - DEW POINT IN FAHRENHEIT
RH     - RELATIVE HUMIDITY IN PERCENT
WIND   - DIRECTION AND SPEED IN MILES PER HOUR (MPH)
VRB    - VARIABLE WIND DIRECTION
PRES   - MEAN SEA LEVEL PRESSURE IN INCHES OF MERCURY
         F - FALLING PRESSURE   R - RISING PRESSURE
         S - STEADY PRESSURE
VSB    - VISIBILITY IN MILES
HX     - HEAT INDEX IN FAHRENHEIT
WCI    - WIND CHILL INDEX IN FAHRENHEIT
TC     - TEMPERATURE IN CELSIUS WHICH IS ALSO KNOWN AS
         TEMPERATURE IN CENTIGRADE
AFB    - AIR FORCE BASE
         LUKE AFB IS LUKE AIR FORCE BASE
         DAVIS-MONTHAN IS DAVIS-MONTHAN AIR FORCE BASE
NAS    - NAVAL AIR STATION
         EL CENTRO NAS IS EL CENTRO NAVAL AIR STATION
N/A    - NOT AVAILABLE


USA.gov is the U.S. government's official web portal to all federal, state and local government web resources and services.